Time,TemperatureF,DewpointF,PressureIn,WindDirection,WindDirectionDegrees,WindSpeedMPH,WindSpeedGustMPH,Humidity,HourlyPrecipIn,Conditions,Clouds,dailyrainin,SolarRadiationWatts/m^2,SoftwareType,DateUTC
2013-09-19 00:01:00,75.2,70.3,30.07,NNE,26,0.0,6.0,85,0.00,,,0.28,0.0,meteohub,2013-09-19 04:01:00,
2013-09-19 00:07:00,75.0,70.2,30.07,NE,55,1.0,6.0,85,0.00,,,0.00,0.0,meteohub,2013-09-19 04:07:00,
2013-09-19 00:09:00,75.0,70.2,30.07,NNE,24,1.0,6.0,85,0.00,,,0.00,0.0,meteohub,2013-09-19 04:09:00,
2013-09-19 00:14:00,75.0,70.2,30.07,NNE,24,0.0,6.0,85,0.00,,,0.00,0.0,meteohub,2013-09-19 04:14:00,
2013-09-19 00:19:00,75.0,70.2,30.07,NNE,32,0.0,3.0,85,0.00,,,0.00,0.0,meteohub,2013-09-19 04:19:00,
2013-09-19 00:24:00,74.8,70.0,30.07,NNE,26,0.0,3.0,85,0.00,,,0.00,0.0,meteohub,2013-09-19 04:24:00,
2013-09-19 00:29:00,74.8,70.3,30.07,NNE,18,0.0,3.0,86,0.00,,,0.00,0.0,meteohub,2013-09-19 04:29:00,
2013-09-19 00:34:00,74.7,70.2,30.07,NNE,18,0.0,4.0,86,0.00,,,0.00,0.0,meteohub,2013-09-19 04:34:00,
2013-09-19 00:39:00,74.7,70.2,30.07,NNE,18,0.0,4.0,86,0.00,,,0.00,0.0,meteohub,2013-09-19 04:39:00,
2013-09-19 00:44:00,74.5,70.0,30.07,NNE,18,0.0,4.0,86,0.00,,,0.00,0.0,meteohub,2013-09-19 04:44:00,
2013-09-19 00:49:00,74.3,70.2,30.07,NNE,19,0.0,3.0,87,0.00,,,0.00,0.0,meteohub,2013-09-19 04:49:00,
2013-09-19 00:54:00,74.1,70.3,30.07,NNE,18,0.0,1.0,88,0.00,,,0.00,0.0,meteohub,2013-09-19 04:54:00,
2013-09-19 00:59:00,73.8,70.0,30.07,NNE,18,0.0,1.0,88,0.00,,,0.00,0.0,meteohub,2013-09-19 04:59:00,
2013-09-19 01:04:00,73.6,69.8,30.06,NNE,19,0.0,0.0,88,0.00,,,0.00,0.0,meteohub,2013-09-19 05:04:00,
2013-09-19 01:09:00,73.2,69.8,30.06,NNE,19,0.0,0.0,89,0.00,,,0.00,0.0,meteohub,2013-09-19 05:09:00,
2013-09-19 01:14:00,73.0,70.0,30.06,NNE,19,0.0,0.0,90,0.00,,,0.00,0.0,meteohub,2013-09-19 05:14:00,
2013-09-19 01:19:00,73.0,70.0,30.06,NNE,19,0.0,0.0,90,0.00,,,0.00,0.0,meteohub,2013-09-19 05:19:00,
2013-09-19 01:24:00,72.9,69.8,30.06,NNE,18,0.0,0.0,90,0.00,,,0.00,0.0,meteohub,2013-09-19 05:24:00,
2013-09-19 01:29:00,72.7,70.0,30.06,NNE,19,0.0,0.0,91,0.00,,,0.00,0.0,meteohub,2013-09-19 05:29:00,
2013-09-19 01:35:00,72.5,69.8,30.06,NNE,19,0.0,0.0,91,0.00,,,0.00,0.0,meteohub,2013-09-19 05:35:00,
2013-09-19 01:40:00,72.3,69.6,30.06,NNE,19,0.0,0.0,91,0.00,,,0.00,0.0,meteohub,2013-09-19 05:40:00,
2013-09-19 01:45:00,72.1,69.4,30.06,NNE,18,0.0,0.0,91,0.00,,,0.00,0.0,meteohub,2013-09-19 05:45:00,
2013-09-19 01:51:00,72.1,69.6,30.06,NNE,18,0.0,0.0,92,0.00,,,0.00,0.0,meteohub,2013-09-19 05:51:00,
2013-09-19 01:56:00,72.1,69.6,30.05,NNE,19,0.0,0.0,92,0.00,,,0.00,0.0,meteohub,2013-09-19 05:56:00,
2013-09-19 02:01:00,72.0,69.4,30.05,NNE,19,0.0,1.0,92,0.00,,,0.00,0.0,meteohub,2013-09-19 06:01:00,
2013-09-19 02:06:00,72.0,69.4,30.05,NNE,17,0.0,1.0,92,0.00,,,0.00,0.0,meteohub,2013-09-19 06:06:00,
2013-09-19 02:11:00,72.0,69.4,30.05,NNE,16,0.0,1.0,92,0.00,,,0.00,0.0,meteohub,2013-09-19 06:11:00,
2013-09-19 02:16:00,72.0,69.3,30.05,West,280,0.0,3.0,91,0.00,,,0.00,0.0,meteohub,2013-09-19 06:16:00,
2013-09-19 02:21:00,71.8,68.7,30.05,WNW,290,0.0,3.0,90,0.00,,,0.00,0.0,meteohub,2013-09-19 06:21:00,
2013-09-19 02:26:00,71.8,68.4,30.05,NNW,327,0.0,3.0,89,0.00,,,0.00,0.0,meteohub,2013-09-19 06:26:00,
2013-09-19 02:31:00,71.6,68.2,30.05,NNW,328,0.0,3.0,89,0.00,,,0.00,0.0,meteohub,2013-09-19 06:31:00,
2013-09-19 02:36:00,71.2,67.5,30.05,NNW,334,0.0,1.0,88,0.00,,,0.00,0.0,meteohub,2013-09-19 06:36:00,
2013-09-19 02:41:00,71.1,67.0,30.05,WNW,294,0.0,-999.0,88,-99.99,,,0.00,0,weatherlink.com 1.10,2013-09-19 06:41:00,
2013-09-19 02:46:00,70.9,66.7,30.05,WNW,292,0.0,3.0,87,0.00,,,0.00,0.0,meteohub,2013-09-19 06:46:00,
2013-09-19 02:51:00,70.9,66.7,30.05,WNW,292,0.0,3.0,87,0.00,,,0.00,0.0,meteohub,2013-09-19 06:51:00,
2013-09-19 02:56:00,70.5,66.4,30.04,NE,38,0.0,3.0,87,0.00,,,0.00,0.0,meteohub,2013-09-19 06:56:00,
2013-09-19 03:01:00,70.3,66.2,30.04,NE,38,0.0,3.0,87,0.00,,,0.00,0.0,meteohub,2013-09-19 07:01:00,
2013-09-19 03:06:00,70.3,66.2,30.04,WNW,288,0.0,3.0,87,0.00,,,0.00,0.0,meteohub,2013-09-19 07:06:00,
2013-09-19 03:11:00,70.2,66.0,30.04,NNE,26,0.0,2.0,87,0.00,,,0.00,0.0,meteohub,2013-09-19 07:11:00,
2013-09-19 03:16:00,70.0,66.0,30.04,NNE,26,0.0,2.0,87,0.00,,,0.00,0.0,meteohub,2013-09-19 07:16:00,
2013-09-19 03:21:00,69.8,65.5,30.04,NNE,27,0.0,2.0,86,0.00,,,0.00,0.0,meteohub,2013-09-19 07:21:00,
2013-09-19 03:26:00,69.6,65.7,30.04,NNE,26,0.0,1.0,87,0.00,,,0.00,0.0,meteohub,2013-09-19 07:26:00,
2013-09-19 03:31:00,69.4,65.5,30.03,NNE,27,0.0,0.0,87,0.00,,,0.00,0.0,meteohub,2013-09-19 07:31:00,
2013-09-19 03:36:00,69.3,65.3,30.03,NNE,27,0.0,1.0,87,0.00,,,0.00,0.0,meteohub,2013-09-19 07:36:00,
2013-09-19 03:41:00,69.1,65.3,30.03,WNW,298,0.0,1.0,88,0.00,,,0.00,0.0,meteohub,2013-09-19 07:41:00,
2013-09-19 03:46:00,68.9,65.1,30.03,WNW,298,0.0,2.0,88,0.00,,,0.00,0.0,meteohub,2013-09-19 07:46:00,
2013-09-19 03:51:00,68.7,64.9,30.03,WNW,299,0.0,2.0,88,0.00,,,0.00,0.0,meteohub,2013-09-19 07:51:00,
2013-09-19 03:56:00,68.5,64.8,30.03,WNW,299,0.0,1.0,88,0.00,,,0.00,0.0,meteohub,2013-09-19 07:56:00,
2013-09-19 04:01:00,68.5,64.8,30.03,WNW,299,0.0,1.0,88,0.00,,,0.00,0.0,meteohub,2013-09-19 08:01:00,
2013-09-19 04:06:00,68.4,64.6,30.03,WNW,299,0.0,1.0,88,0.00,,,0.00,0.0,meteohub,2013-09-19 08:06:00,
2013-09-19 04:11:00,68.4,64.9,30.03,WNW,299,0.0,0.0,89,0.00,,,0.00,0.0,meteohub,2013-09-19 08:11:00,
2013-09-19 04:16:00,68.2,64.8,30.03,WNW,299,0.0,0.0,89,0.00,,,0.00,0.0,meteohub,2013-09-19 08:16:00,
2013-09-19 04:21:00,68.0,64.4,30.03,WNW,299,0.0,2.0,88,0.00,,,0.00,0.0,meteohub,2013-09-19 08:21:00,
2013-09-19 04:26:00,67.8,64.2,30.03,WNW,299,0.0,2.0,88,0.00,,,0.00,0.0,meteohub,2013-09-19 08:26:00,
2013-09-19 04:31:00,67.8,64.2,30.04,WNW,299,0.0,2.0,88,0.00,,,0.00,0.0,meteohub,2013-09-19 08:31:00,
2013-09-19 04:36:00,67.8,64.4,30.03,WNW,299,0.0,1.0,89,0.00,,,0.00,0.0,meteohub,2013-09-19 08:36:00,
2013-09-19 04:41:00,67.6,64.2,30.03,WNW,299,0.0,1.0,89,0.00,,,0.00,0.0,meteohub,2013-09-19 08:41:00,
2013-09-19 04:46:00,67.6,64.2,30.03,WNW,299,0.0,1.0,89,0.00,,,0.00,0.0,meteohub,2013-09-19 08:46:00,
2013-09-19 04:51:00,67.6,64.2,30.03,WNW,299,0.0,1.0,89,0.00,,,0.00,0.0,meteohub,2013-09-19 08:51:00,
2013-09-19 04:56:00,67.6,64.2,30.03,WNW,299,0.0,1.0,89,0.00,,,0.00,0.0,meteohub,2013-09-19 08:56:00,
2013-09-19 05:01:00,67.5,64.0,30.03,WNW,299,0.0,0.0,89,0.00,,,0.00,0.0,meteohub,2013-09-19 09:01:00,
2013-09-19 05:06:00,67.5,64.0,30.03,WNW,299,0.0,1.0,89,0.00,,,0.00,0.0,meteohub,2013-09-19 09:06:00,
2013-09-19 05:11:00,67.5,64.0,30.03,WNW,299,0.0,1.0,89,0.00,,,0.00,0.0,meteohub,2013-09-19 09:11:00,
2013-09-19 05:16:00,67.5,64.0,30.03,NW,311,0.0,2.0,89,0.00,,,0.00,0.0,meteohub,2013-09-19 09:16:00,
2013-09-19 05:21:00,67.5,64.0,30.03,NW,311,0.0,2.0,89,0.00,,,0.00,0.0,meteohub,2013-09-19 09:21:00,
2013-09-19 05:26:00,67.3,63.7,30.03,NW,311,0.0,1.0,88,0.00,,,0.00,0.0,meteohub,2013-09-19 09:26:00,
2013-09-19 05:31:00,67.3,63.7,30.04,NW,310,0.0,1.0,88,0.00,,,0.00,0.0,meteohub,2013-09-19 09:31:00,
2013-09-19 05:36:00,67.3,63.9,30.04,NW,311,0.0,1.0,89,0.00,,,0.00,0.0,meteohub,2013-09-19 09:36:00,
2013-09-19 05:41:00,67.3,64.0,30.03,NW,310,0.0,-999.0,89,-99.99,,,0.00,0,weatherlink.com 1.10,2013-09-19 09:41:00,
2013-09-19 05:46:00,67.3,63.9,30.03,NNE,29,0.0,1.0,89,0.00,,,0.00,0.0,meteohub,2013-09-19 09:46:00,
2013-09-19 05:51:00,67.3,63.9,30.04,NNE,29,0.0,2.0,89,0.00,,,0.00,0.0,meteohub,2013-09-19 09:51:00,
2013-09-19 05:56:00,67.2,64.0,30.04,NNE,29,0.0,-999.0,89,-99.99,,,0.00,0,weatherlink.com 1.10,2013-09-19 09:56:00,
2013-09-19 06:01:00,67.3,64.2,30.04,NNE,29,0.0,2.0,90,0.00,,,0.00,0.0,meteohub,2013-09-19 10:01:00,
2013-09-19 06:06:00,67.1,63.7,30.04,NNE,29,0.0,1.0,89,0.00,,,0.00,0.0,meteohub,2013-09-19 10:06:00,
2013-09-19 06:11:00,67.1,63.7,30.04,NNE,28,0.0,1.0,89,0.00,,,0.00,0.0,meteohub,2013-09-19 10:11:00,
2013-09-19 06:16:00,66.9,63.9,30.04,WNW,298,0.0,1.0,90,0.00,,,0.00,0.0,meteohub,2013-09-19 10:16:00,
2013-09-19 06:21:00,66.9,63.9,30.04,WNW,298,0.0,2.0,90,0.00,,,0.00,0.0,meteohub,2013-09-19 10:21:00,
2013-09-19 06:26:00,66.9,63.9,30.04,WNW,298,0.0,2.0,90,0.00,,,0.00,0.0,meteohub,2013-09-19 10:26:00,
2013-09-19 06:31:00,66.9,63.9,30.04,WNW,298,0.0,1.0,90,0.00,,,0.00,0.0,meteohub,2013-09-19 10:31:00,
2013-09-19 06:36:00,66.9,63.9,30.04,NNE,13,0.0,1.0,90,0.00,,,0.00,0.0,meteohub,2013-09-19 10:36:00,
2013-09-19 06:41:00,66.9,63.9,30.04,NNE,14,1.0,1.0,90,0.00,,,0.00,0.0,meteohub,2013-09-19 10:41:00,
2013-09-19 06:46:00,66.9,64.2,30.04,NNE,14,0.0,2.0,91,0.00,,,0.00,0.0,meteohub,2013-09-19 10:46:00,
2013-09-19 06:51:00,66.9,64.2,30.05,NNE,32,0.0,2.0,91,0.00,,,0.00,0.0,meteohub,2013-09-19 10:51:00,
2013-09-19 06:56:00,67.1,64.4,30.05,NNE,32,0.0,3.0,91,0.00,,,0.00,0.0,meteohub,2013-09-19 10:56:00,
2013-09-19 07:01:00,66.9,64.2,30.05,North,9,0.0,3.0,91,0.00,,,0.00,0.0,meteohub,2013-09-19 11:01:00,
2013-09-19 07:06:00,66.9,64.2,30.05,NE,34,0.0,3.0,91,0.00,,,0.00,0.0,meteohub,2013-09-19 11:06:00,
2013-09-19 07:11:00,67.0,64.0,30.05,NE,34,0.0,-999.0,91,-99.99,,,0.00,0,weatherlink.com 1.10,2013-09-19 11:11:00,
2013-09-19 07:16:00,66.9,64.2,30.05,NE,46,0.0,4.0,91,0.00,,,0.00,5.0,meteohub,2013-09-19 11:16:00,
2013-09-19 07:21:00,66.9,64.2,30.04,NE,46,0.0,4.0,91,0.00,,,0.00,9.0,meteohub,2013-09-19 11:21:00,
2013-09-19 07:26:00,66.9,64.2,30.05,NE,46,0.0,4.0,91,0.00,,,0.00,12.0,meteohub,2013-09-19 11:26:00,
2013-09-19 07:31:00,67.1,64.4,30.05,NW,325,0.0,2.0,91,0.00,,,0.00,16.0,meteohub,2013-09-19 11:31:00,
2013-09-19 07:36:00,67.1,64.4,30.04,NW,325,0.0,2.0,91,0.00,,,0.00,23.0,meteohub,2013-09-19 11:36:00,
2013-09-19 07:41:00,67.3,64.6,30.05,NE,55,0.0,2.0,91,0.00,,,0.00,28.0,meteohub,2013-09-19 11:41:00,
2013-09-19 07:46:00,67.5,64.8,30.05,NE,55,0.0,3.0,91,0.00,,,0.00,33.0,meteohub,2013-09-19 11:46:00,
2013-09-19 07:51:00,67.6,64.9,30.05,WNW,286,0.0,3.0,91,0.00,,,0.00,37.0,meteohub,2013-09-19 11:51:00,
2013-09-19 07:56:00,67.8,65.1,30.05,WNW,286,0.0,2.0,91,0.00,,,0.00,49.0,meteohub,2013-09-19 11:56:00,
2013-09-19 08:01:00,67.8,64.8,30.05,NNE,22,0.0,2.0,90,0.00,,,0.00,93.0,meteohub,2013-09-19 12:01:00,
2013-09-19 08:06:00,68.2,65.1,30.05,NE,50,0.0,3.0,90,0.00,,,0.00,79.0,meteohub,2013-09-19 12:06:00,
2013-09-19 08:11:00,68.5,65.5,30.05,ENE,57,2.0,3.0,90,0.00,,,0.00,88.0,meteohub,2013-09-19 12:11:00,
2013-09-19 08:16:00,68.9,65.5,30.06,NE,42,0.0,3.0,89,0.00,,,0.00,139.0,meteohub,2013-09-19 12:16:00,
2013-09-19 08:21:00,69.4,66.0,30.05,NE,39,0.0,5.0,89,0.00,,,0.00,174.0,meteohub,2013-09-19 12:21:00,
2013-09-19 08:26:00,70.0,66.2,30.06,North,355,1.0,5.0,88,0.00,,,0.00,195.0,meteohub,2013-09-19 12:26:00,
2013-09-19 08:31:00,70.3,66.6,30.06,NE,41,0.0,5.0,88,0.00,,,0.00,155.0,meteohub,2013-09-19 12:31:00,
2013-09-19 08:36:00,70.5,66.4,30.06,ENE,68,2.0,5.0,87,0.00,,,0.00,229.0,meteohub,2013-09-19 12:36:00,
2013-09-19 08:41:00,71.1,66.9,30.06,NNE,22,0.0,5.0,87,0.00,,,0.00,330.0,meteohub,2013-09-19 12:41:00,
2013-09-19 08:46:00,71.4,67.1,30.06,North,5,0.0,4.0,86,0.00,,,0.00,169.0,meteohub,2013-09-19 12:46:00,
2013-09-19 08:51:00,71.8,67.6,30.06,WNW,294,0.0,4.0,87,0.00,,,0.00,403.0,meteohub,2013-09-19 12:51:00,
2013-09-19 08:56:00,72.3,67.8,30.06,NE,49,6.0,6.0,86,0.00,,,0.00,448.0,meteohub,2013-09-19 12:56:00,
2013-09-19 09:01:00,73.0,68.2,30.06,WNW,291,0.0,8.0,85,0.00,,,0.00,464.0,meteohub,2013-09-19 13:01:00,
2013-09-19 09:06:00,73.8,68.5,30.06,NW,305,1.0,8.0,84,0.00,,,0.00,461.0,meteohub,2013-09-19 13:06:00,
2013-09-19 09:11:00,74.1,68.9,30.06,NE,40,3.0,9.0,84,0.00,,,0.00,425.0,meteohub,2013-09-19 13:11:00,
2013-09-19 09:16:00,74.1,68.5,30.06,NE,46,7.0,9.0,83,0.00,,,0.00,406.0,meteohub,2013-09-19 13:16:00,
2013-09-19 09:21:00,73.9,68.7,30.06,NE,48,8.0,9.0,84,0.00,,,0.00,417.0,meteohub,2013-09-19 13:21:00,
2013-09-19 09:26:00,74.1,68.9,30.07,NE,34,4.0,10.0,84,0.00,,,0.00,448.0,meteohub,2013-09-19 13:26:00,
2013-09-19 09:31:00,74.7,69.4,30.07,NNW,348,1.0,10.0,84,0.00,,,0.00,401.0,meteohub,2013-09-19 13:31:00,
2013-09-19 09:36:00,75.0,69.8,30.07,NW,307,0.0,10.0,84,0.00,,,0.00,292.0,meteohub,2013-09-19 13:36:00,
2013-09-19 09:41:00,75.4,70.2,30.07,NE,36,1.0,6.0,84,0.00,,,0.00,490.0,meteohub,2013-09-19 13:41:00,
2013-09-19 09:46:00,75.7,70.5,30.07,NE,38,5.0,5.0,84,0.00,,,0.00,631.0,meteohub,2013-09-19 13:46:00,
2013-09-19 09:51:00,76.3,70.7,30.07,NE,51,0.0,7.0,83,0.00,,,0.00,585.0,meteohub,2013-09-19 13:51:00,
2013-09-19 09:56:00,76.6,70.7,30.07,NE,40,3.0,7.0,82,0.00,,,0.00,483.0,meteohub,2013-09-19 13:56:00,
2013-09-19 10:01:00,76.6,71.1,30.07,NE,40,3.0,6.0,83,0.00,,,0.00,237.0,meteohub,2013-09-19 14:01:00,
2013-09-19 10:06:00,76.8,71.2,30.07,NE,52,11.0,11.0,83,0.00,,,0.00,612.0,meteohub,2013-09-19 14:06:00,
2013-09-19 10:11:00,77.5,71.6,30.07,ENE,63,2.0,11.0,82,0.00,,,0.00,591.0,meteohub,2013-09-19 14:11:00,
2013-09-19 10:16:00,77.5,71.2,30.08,NE,45,3.0,11.0,81,0.00,,,0.00,577.0,meteohub,2013-09-19 14:16:00,
2013-09-19 10:21:00,77.7,71.4,30.07,NE,38,5.0,12.0,81,0.00,,,0.00,585.0,meteohub,2013-09-19 14:21:00,
2013-09-19 10:26:00,77.7,71.4,30.07,NNE,22,4.0,12.0,81,0.00,,,0.00,603.0,meteohub,2013-09-19 14:26:00,
2013-09-19 10:31:00,78.1,71.8,30.08,NNE,32,7.0,11.0,81,0.00,,,0.00,638.0,meteohub,2013-09-19 14:31:00,
2013-09-19 10:36:00,78.3,72.3,30.07,NNE,24,7.0,11.0,82,0.00,,,0.00,650.0,meteohub,2013-09-19 14:36:00,
2013-09-19 10:41:00,78.3,72.0,30.08,NNE,33,6.0,13.0,81,0.00,,,0.00,659.0,meteohub,2013-09-19 14:41:00,
2013-09-19 10:46:00,78.3,72.3,30.08,NE,52,7.0,17.0,82,0.00,,,0.00,675.0,meteohub,2013-09-19 14:46:00,
2013-09-19 10:51:00,78.6,72.3,30.08,NNE,31,7.0,17.0,81,0.00,,,0.00,694.0,meteohub,2013-09-19 14:51:00,
2013-09-19 10:56:00,78.6,72.3,30.08,NE,40,6.0,17.0,81,0.00,,,0.00,761.0,meteohub,2013-09-19 14:56:00,
2013-09-19 11:01:00,79.2,73.2,30.08,NNE,30,5.0,14.0,82,0.00,,,0.00,724.0,meteohub,2013-09-19 15:01:00,
2013-09-19 11:06:00,79.0,72.7,30.08,NE,51,8.0,17.0,81,0.00,,,0.00,213.0,meteohub,2013-09-19 15:06:00,
2013-09-19 11:11:00,78.8,72.9,30.08,NNW,337,1.0,17.0,82,0.00,,,0.00,810.0,meteohub,2013-09-19 15:11:00,
2013-09-19 11:16:00,78.8,72.9,30.08,NE,38,6.0,17.0,82,0.00,,,0.00,846.0,meteohub,2013-09-19 15:16:00,
2013-09-19 11:21:00,79.0,73.0,30.08,NE,52,6.0,13.0,82,0.00,,,0.00,436.0,meteohub,2013-09-19 15:21:00,
2013-09-19 11:26:00,79.0,73.0,30.09,East,87,5.0,12.0,82,0.00,,,0.00,299.0,meteohub,2013-09-19 15:26:00,
2013-09-19 11:31:00,78.4,72.5,30.09,NE,42,8.0,13.0,82,0.00,,,0.00,257.0,meteohub,2013-09-19 15:31:00,
2013-09-19 11:36:00,78.3,72.7,30.09,NE,34,4.0,13.0,83,0.00,,,0.00,165.0,meteohub,2013-09-19 15:36:00,
2013-09-19 11:41:00,78.3,73.0,30.09,ESE,114,9.0,13.0,84,0.00,,,0.00,281.0,meteohub,2013-09-19 15:41:00,
2013-09-19 11:46:00,78.6,73.4,30.09,NE,44,6.0,13.0,84,0.00,,,0.00,1039.0,meteohub,2013-09-19 15:46:00,
2013-09-19 11:51:00,79.9,73.2,30.09,NE,49,4.0,13.0,80,0.00,,,0.00,1071.0,meteohub,2013-09-19 15:51:00,
2013-09-19 11:56:00,80.1,73.0,30.09,ENE,60,1.0,11.0,79,0.00,,,0.00,383.0,meteohub,2013-09-19 15:56:00,
2013-09-19 12:01:00,80.1,73.4,30.09,NE,53,5.0,11.0,80,0.00,,,0.00,399.0,meteohub,2013-09-19 16:01:00,
2013-09-19 12:06:00,79.3,73.0,30.09,East,98,8.0,11.0,81,0.00,,,0.00,288.0,meteohub,2013-09-19 16:06:00,
2013-09-19 12:11:00,78.7,73.0,30.09,ENE,57,8.0,-999.0,82,-99.99,,,0.00,246,weatherlink.com 1.10,2013-09-19 16:11:00,
2013-09-19 12:17:00,78.6,72.7,30.09,NE,38,3.0,14.0,82,0.00,,,0.00,258.0,meteohub,2013-09-19 16:17:00,
2013-09-19 12:22:00,78.6,72.7,30.09,ENE,64,10.0,13.0,82,0.00,,,0.00,230.0,meteohub,2013-09-19 16:22:00,
2013-09-19 12:27:00,78.8,72.5,30.09,NNE,17,3.0,13.0,81,0.00,,,0.00,271.0,meteohub,2013-09-19 16:27:00,
2013-09-19 12:32:00,78.8,72.1,30.08,NNE,17,3.0,13.0,80,0.00,,,0.00,299.0,meteohub,2013-09-19 16:32:00,
2013-09-19 12:37:00,79.0,72.3,30.08,North,5,8.0,10.0,80,0.00,,,0.00,330.0,meteohub,2013-09-19 16:37:00,
2013-09-19 12:42:00,79.5,72.5,30.08,NNE,32,10.0,12.0,79,0.00,,,0.00,916.0,meteohub,2013-09-19 16:42:00,
2013-09-19 12:47:00,79.9,73.2,30.08,NNE,22,2.0,13.0,80,0.00,,,0.00,427.0,meteohub,2013-09-19 16:47:00,
2013-09-19 12:52:00,79.9,72.3,30.08,NNE,23,7.0,13.0,78,0.00,,,0.00,276.0,meteohub,2013-09-19 16:52:00,
2013-09-19 12:57:00,79.5,72.5,30.08,ENE,72,8.0,13.0,79,0.00,,,0.00,290.0,meteohub,2013-09-19 16:57:00,
2013-09-19 13:02:00,79.5,72.1,30.08,NNE,24,5.0,13.0,78,0.00,,,0.00,287.0,meteohub,2013-09-19 17:02:00,
2013-09-19 13:06:00,79.3,72.3,30.08,NE,42,5.0,13.0,79,0.00,,,0.00,250.0,meteohub,2013-09-19 17:06:00,
2013-09-19 13:11:00,79.2,71.8,30.08,ENE,66,3.0,12.0,78,0.00,,,0.00,260.0,meteohub,2013-09-19 17:11:00,
2013-09-19 13:16:00,79.3,72.3,30.07,ENE,67,5.0,12.0,79,0.00,,,0.00,399.0,meteohub,2013-09-19 17:16:00,
2013-09-19 13:21:00,80.2,72.7,30.07,ENE,63,5.0,12.0,78,0.00,,,0.00,322.0,meteohub,2013-09-19 17:21:00,
2013-09-19 13:26:00,80.1,72.1,30.07,NE,36,4.0,12.0,77,0.00,,,0.00,214.0,meteohub,2013-09-19 17:26:00,
2013-09-19 13:31:00,79.5,72.1,30.07,NNE,33,9.0,12.0,78,0.00,,,0.00,260.0,meteohub,2013-09-19 17:31:00,
2013-09-19 13:36:00,79.5,72.1,30.07,ENE,70,7.0,12.0,78,0.00,,,0.00,765.0,meteohub,2013-09-19 17:36:00,
2013-09-19 13:41:00,80.1,72.1,30.06,ESE,121,1.0,11.0,77,0.00,,,0.00,1111.0,meteohub,2013-09-19 17:41:00,
2013-09-19 13:46:00,80.6,73.0,30.06,ENE,57,2.0,11.0,78,0.00,,,0.00,1143.0,meteohub,2013-09-19 17:46:00,
2013-09-19 13:51:00,80.4,72.5,30.06,ENE,64,8.0,11.0,77,0.00,,,0.00,239.0,meteohub,2013-09-19 17:51:00,
2013-09-19 13:56:00,79.9,72.9,30.06,East,85,6.0,13.0,79,0.00,,,0.00,976.0,meteohub,2013-09-19 17:56:00,
2013-09-19 14:01:00,80.1,72.5,30.06,ENE,57,4.0,13.0,78,0.00,,,0.00,990.0,meteohub,2013-09-19 18:01:00,
2013-09-19 14:06:00,80.6,72.3,30.06,NNE,19,9.0,14.0,76,0.00,,,0.00,1014.0,meteohub,2013-09-19 18:06:00,
2013-09-19 14:11:00,80.2,72.0,30.06,NE,47,3.0,14.0,76,0.00,,,0.00,290.0,meteohub,2013-09-19 18:11:00,
2013-09-19 14:17:00,80.2,72.3,30.06,NNE,15,0.0,14.0,77,0.00,,,0.00,290.0,meteohub,2013-09-19 18:17:00,
2013-09-19 14:22:00,80.4,72.5,30.06,North,0,6.0,14.0,77,0.00,,,0.00,397.0,meteohub,2013-09-19 18:22:00,
2013-09-19 14:27:00,80.4,72.5,30.06,NNE,22,8.0,12.0,77,0.00,,,0.00,272.0,meteohub,2013-09-19 18:27:00,
2013-09-19 14:32:00,80.2,72.3,30.06,North,5,1.0,11.0,77,0.00,,,0.00,211.0,meteohub,2013-09-19 18:32:00,
2013-09-19 14:37:00,79.7,72.1,30.05,ENE,59,2.0,11.0,78,0.00,,,0.00,176.0,meteohub,2013-09-19 18:37:00,
2013-09-19 14:42:00,79.3,72.3,30.05,ENE,67,2.0,10.0,79,0.00,,,0.00,218.0,meteohub,2013-09-19 18:42:00,
2013-09-19 14:47:00,79.2,72.1,30.05,NE,35,5.0,10.0,79,0.00,,,0.00,341.0,meteohub,2013-09-19 18:47:00,
2013-09-19 14:52:00,79.5,72.9,30.05,NE,46,2.0,13.0,80,0.00,,,0.00,274.0,meteohub,2013-09-19 18:52:00,
2013-09-19 14:57:00,80.1,72.1,30.04,NNE,26,7.0,13.0,77,0.00,,,0.00,315.0,meteohub,2013-09-19 18:57:00,
2013-09-19 15:02:00,80.6,73.0,30.04,ESE,117,1.0,10.0,78,0.00,,,0.00,947.0,meteohub,2013-09-19 19:02:00,
2013-09-19 15:06:00,80.8,72.9,30.04,NNE,31,9.0,10.0,77,0.00,,,0.00,279.0,meteohub,2013-09-19 19:06:00,
2013-09-19 15:11:00,80.1,72.1,30.04,NE,42,2.0,13.0,77,0.00,,,0.00,204.0,meteohub,2013-09-19 19:11:00,
2013-09-19 15:17:00,79.5,72.1,30.04,ENE,67,4.0,13.0,78,0.00,,,0.00,784.0,meteohub,2013-09-19 19:17:00,
2013-09-19 15:22:00,79.9,72.0,30.04,NE,43,2.0,13.0,77,0.00,,,0.00,761.0,meteohub,2013-09-19 19:22:00,
2013-09-19 15:26:00,80.6,72.7,30.03,ENE,70,2.0,9.0,77,0.00,,,0.00,819.0,meteohub,2013-09-19 19:26:00,
2013-09-19 15:31:00,80.4,72.5,30.03,NE,49,3.0,10.0,77,0.00,,,0.00,650.0,meteohub,2013-09-19 19:31:00,
2013-09-19 15:37:00,80.1,71.8,30.04,NE,44,2.0,11.0,76,0.00,,,0.00,230.0,meteohub,2013-09-19 19:37:00,
2013-09-19 15:42:00,80.2,72.0,30.03,NE,49,6.0,11.0,76,0.00,,,0.00,294.0,meteohub,2013-09-19 19:42:00,
2013-09-19 15:46:00,80.2,72.0,30.03,NNE,28,4.0,11.0,76,0.00,,,0.00,302.0,meteohub,2013-09-19 19:46:00,
2013-09-19 15:51:00,80.1,71.4,30.03,NE,50,6.0,10.0,75,0.00,,,0.00,243.0,meteohub,2013-09-19 19:51:00,
2013-09-19 15:56:00,79.7,71.4,30.03,NNE,21,6.0,10.0,76,0.00,,,0.00,190.0,meteohub,2013-09-19 19:56:00,
2013-09-19 16:01:00,79.3,71.4,30.03,NNE,21,2.0,12.0,77,0.00,,,0.00,246.0,meteohub,2013-09-19 20:01:00,
2013-09-19 16:06:00,79.5,72.1,30.03,NE,41,5.0,12.0,78,0.00,,,0.00,288.0,meteohub,2013-09-19 20:06:00,
2013-09-19 16:11:00,79.9,72.3,30.03,NE,36,1.0,11.0,78,0.00,,,0.00,768.0,meteohub,2013-09-19 20:11:00,
2013-09-19 16:16:00,80.1,72.5,30.03,East,79,1.0,12.0,78,0.00,,,0.00,768.0,meteohub,2013-09-19 20:16:00,
2013-09-19 16:21:00,79.9,72.9,30.03,NNE,27,3.0,13.0,79,0.00,,,0.00,603.0,meteohub,2013-09-19 20:21:00,
2013-09-19 16:26:00,80.1,72.5,30.03,NE,38,8.0,13.0,78,0.00,,,0.00,606.0,meteohub,2013-09-19 20:26:00,
2013-09-19 16:31:00,80.1,72.5,30.03,SE,126,0.0,12.0,78,0.00,,,0.00,578.0,meteohub,2013-09-19 20:31:00,
2013-09-19 16:36:00,80.4,72.1,30.03,ENE,74,3.0,12.0,76,0.00,,,0.00,548.0,meteohub,2013-09-19 20:36:00,
2013-09-19 16:41:00,80.2,72.7,30.03,NE,41,0.0,12.0,78,0.00,,,0.00,601.0,meteohub,2013-09-19 20:41:00,
2013-09-19 16:46:00,80.8,72.5,30.03,ENE,60,8.0,10.0,76,0.00,,,0.00,666.0,meteohub,2013-09-19 20:46:00,
2013-09-19 16:51:00,80.2,72.0,30.03,NE,50,3.0,12.0,76,0.00,,,0.00,107.0,meteohub,2013-09-19 20:51:00,
2013-09-19 16:56:00,79.3,71.4,30.03,NE,42,7.0,12.0,77,0.00,,,0.00,69.0,meteohub,2013-09-19 20:56:00,
2013-09-19 17:01:00,78.6,71.6,30.03,NE,48,1.0,10.0,79,0.00,,,0.00,105.0,meteohub,2013-09-19 21:01:00,
2013-09-19 17:06:00,79.0,72.0,30.03,NE,55,1.0,10.0,79,0.00,,,0.00,548.0,meteohub,2013-09-19 21:06:00,
2013-09-19 17:11:00,79.4,72.0,30.03,NE,44,4.0,-999.0,78,-99.99,,,0.00,267,weatherlink.com 1.10,2013-09-19 21:11:00,
2013-09-19 17:16:00,79.2,72.1,30.03,NE,38,2.0,12.0,79,0.00,,,0.00,97.0,meteohub,2013-09-19 21:16:00,
2013-09-19 17:21:00,79.3,72.3,30.03,SE,133,6.0,12.0,79,0.00,,,0.00,264.0,meteohub,2013-09-19 21:21:00,
2013-09-19 17:26:00,79.3,72.3,30.03,NE,40,3.0,13.0,79,0.00,,,0.00,109.0,meteohub,2013-09-19 21:26:00,
2013-09-19 17:31:00,79.2,72.5,30.03,NE,37,4.0,13.0,80,0.00,,,0.00,213.0,meteohub,2013-09-19 21:31:00,
2013-09-19 17:36:00,79.3,73.0,30.03,ENE,78,4.0,13.0,81,0.00,,,0.00,123.0,meteohub,2013-09-19 21:36:00,
2013-09-19 17:41:00,78.8,72.9,30.03,ENE,67,7.0,12.0,82,0.00,,,0.00,93.0,meteohub,2013-09-19 21:41:00,
2013-09-19 17:46:00,78.4,72.9,30.03,NE,36,5.0,12.0,83,0.00,,,0.00,56.0,meteohub,2013-09-19 21:46:00,
2013-09-19 17:51:00,78.4,72.5,30.03,ENE,59,1.0,11.0,82,0.00,,,0.00,54.0,meteohub,2013-09-19 21:51:00,
2013-09-19 17:56:00,78.4,72.5,30.03,NNE,32,4.0,9.0,82,0.00,,,0.00,70.0,meteohub,2013-09-19 21:56:00,
2013-09-19 18:01:00,78.4,72.5,30.03,NNE,22,2.0,9.0,82,0.00,,,0.00,47.0,meteohub,2013-09-19 22:01:00,
2013-09-19 18:06:00,78.4,72.5,30.03,NE,51,4.0,7.0,82,0.00,,,0.00,67.0,meteohub,2013-09-19 22:06:00,
2013-09-19 18:11:00,78.4,72.1,30.03,NE,40,3.0,7.0,81,0.00,,,0.00,47.0,meteohub,2013-09-19 22:11:00,
2013-09-19 18:16:00,78.3,72.0,30.03,East,94,1.0,6.0,81,0.00,,,0.00,42.0,meteohub,2013-09-19 22:16:00,
2013-09-19 18:21:00,78.1,71.4,30.03,NE,51,2.0,6.0,80,0.00,,,0.00,39.0,meteohub,2013-09-19 22:21:00,
2013-09-19 18:26:00,78.1,71.8,30.03,ENE,74,0.0,5.0,81,0.00,,,0.00,84.0,meteohub,2013-09-19 22:26:00,
2013-09-19 18:31:00,77.9,70.9,30.03,East,86,0.0,5.0,79,0.00,,,0.00,28.0,meteohub,2013-09-19 22:31:00,
2013-09-19 18:36:00,77.7,70.7,30.04,NE,42,0.0,5.0,79,0.00,,,0.00,26.0,meteohub,2013-09-19 22:36:00,
2013-09-19 18:41:00,77.7,70.7,30.04,NE,42,1.0,5.0,79,0.00,,,0.00,25.0,meteohub,2013-09-19 22:41:00,
2013-09-19 18:46:00,77.5,70.9,30.04,NE,37,0.0,3.0,80,0.00,,,0.00,23.0,meteohub,2013-09-19 22:46:00,
2013-09-19 18:51:00,77.4,71.1,30.04,NE,37,0.0,3.0,81,0.00,,,0.00,21.0,meteohub,2013-09-19 22:51:00,
2013-09-19 18:56:00,77.2,71.2,30.04,NE,37,0.0,3.0,82,0.00,,,0.00,19.0,meteohub,2013-09-19 22:56:00,
2013-09-19 19:01:00,77.0,71.1,30.04,NE,37,0.0,3.0,82,0.00,,,0.00,16.0,meteohub,2013-09-19 23:01:00,
2013-09-19 19:06:00,76.8,70.9,30.04,NE,37,0.0,1.0,82,0.00,,,0.00,14.0,meteohub,2013-09-19 23:06:00,
2013-09-19 19:11:00,76.6,71.1,30.04,NE,37,0.0,0.0,83,0.00,,,0.00,11.0,meteohub,2013-09-19 23:11:00,
2013-09-19 19:16:00,76.3,70.7,30.04,NE,37,0.0,0.0,83,0.00,,,0.00,9.0,meteohub,2013-09-19 23:16:00,
2013-09-19 19:21:00,76.1,70.5,30.04,ENE,63,0.0,0.0,83,0.00,,,0.00,5.0,meteohub,2013-09-19 23:21:00,
2013-09-19 19:26:00,75.7,70.5,30.04,East,92,0.0,0.0,84,0.00,,,0.00,0.0,meteohub,2013-09-19 23:26:00,
2013-09-19 19:31:00,75.6,70.3,30.04,East,92,0.0,0.0,84,0.00,,,0.00,0.0,meteohub,2013-09-19 23:31:00,
2013-09-19 19:36:00,75.4,70.5,30.04,East,92,0.0,0.0,85,0.00,,,0.00,0.0,meteohub,2013-09-19 23:36:00,
2013-09-19 19:41:00,75.0,70.2,30.04,East,92,0.0,0.0,85,0.00,,,0.00,0.0,meteohub,2013-09-19 23:41:00,
2013-09-19 19:46:00,74.7,70.2,30.04,East,92,0.0,0.0,86,0.00,,,0.00,0.0,meteohub,2013-09-19 23:46:00,
2013-09-19 19:52:00,74.5,70.3,30.04,East,92,0.0,0.0,87,0.00,,,0.00,0.0,meteohub,2013-09-19 23:52:00,
2013-09-19 19:57:00,74.1,70.3,30.04,East,92,0.0,0.0,88,0.00,,,0.00,0.0,meteohub,2013-09-19 23:57:00,
2013-09-19 20:02:00,74.1,70.7,30.03,East,92,0.0,0.0,89,0.00,,,0.00,0.0,meteohub,2013-09-20 00:02:00,
2013-09-19 20:07:00,73.8,70.3,30.04,East,92,0.0,0.0,89,0.00,,,0.00,0.0,meteohub,2013-09-20 00:07:00,
2013-09-19 20:12:00,73.6,70.5,30.04,East,92,0.0,0.0,90,0.00,,,0.00,0.0,meteohub,2013-09-20 00:12:00,
2013-09-19 20:17:00,73.2,70.5,30.04,East,92,0.0,0.0,91,0.00,,,0.00,0.0,meteohub,2013-09-20 00:17:00,
2013-09-19 20:22:00,73.0,70.3,30.04,East,92,0.0,0.0,91,0.00,,,0.00,0.0,meteohub,2013-09-20 00:22:00,
2013-09-19 20:27:00,72.9,70.2,30.04,East,92,0.0,0.0,91,0.00,,,0.00,0.0,meteohub,2013-09-20 00:27:00,
2013-09-19 20:32:00,72.5,69.8,30.04,East,92,0.0,0.0,91,0.00,,,0.00,0.0,meteohub,2013-09-20 00:32:00,
2013-09-19 20:37:00,72.3,69.8,30.04,East,92,0.0,0.0,92,0.00,,,0.00,0.0,meteohub,2013-09-20 00:37:00,
2013-09-19 20:42:00,72.1,69.6,30.04,East,92,0.0,0.0,92,0.00,,,0.00,0.0,meteohub,2013-09-20 00:42:00,
2013-09-19 20:47:00,72.0,69.4,30.04,East,92,0.0,0.0,92,0.00,,,0.00,0.0,meteohub,2013-09-20 00:47:00,
2013-09-19 20:52:00,72.0,69.8,30.04,East,92,0.0,0.0,93,0.00,,,0.00,0.0,meteohub,2013-09-20 00:52:00,
2013-09-19 20:57:00,71.8,69.6,30.04,East,92,0.0,0.0,93,0.00,,,0.00,0.0,meteohub,2013-09-20 00:57:00,
2013-09-19 21:02:00,71.4,69.3,30.04,East,92,0.0,0.0,93,0.00,,,0.00,0.0,meteohub,2013-09-20 01:02:00,
2013-09-19 21:07:00,71.2,69.1,30.04,East,92,0.0,0.0,93,0.00,,,0.00,0.0,meteohub,2013-09-20 01:07:00,
2013-09-19 21:12:00,71.2,69.4,30.04,East,92,0.0,0.0,94,0.00,,,0.00,0.0,meteohub,2013-09-20 01:12:00,
2013-09-19 21:17:00,71.2,69.4,30.04,East,92,0.0,0.0,94,0.00,,,0.00,0.0,meteohub,2013-09-20 01:17:00,
2013-09-19 21:22:00,71.1,69.3,30.04,East,92,0.0,0.0,94,0.00,,,0.00,0.0,meteohub,2013-09-20 01:22:00,
2013-09-19 21:27:00,70.9,69.1,30.04,East,92,0.0,0.0,94,0.00,,,0.00,0.0,meteohub,2013-09-20 01:27:00,
2013-09-19 21:32:00,70.7,68.9,30.04,East,92,0.0,0.0,94,0.00,,,0.00,0.0,meteohub,2013-09-20 01:32:00,
2013-09-19 21:37:00,70.5,68.7,30.04,East,92,0.0,0.0,94,0.00,,,0.00,0.0,meteohub,2013-09-20 01:37:00,
2013-09-19 21:42:00,70.3,68.5,30.04,East,92,0.0,0.0,94,0.00,,,0.00,0.0,meteohub,2013-09-20 01:42:00,
2013-09-19 21:47:00,70.3,68.5,30.04,East,92,0.0,0.0,94,0.00,,,0.00,0.0,meteohub,2013-09-20 01:47:00,
2013-09-19 21:52:00,70.3,68.9,30.04,East,92,0.0,0.0,95,0.00,,,0.00,0.0,meteohub,2013-09-20 01:52:00,
2013-09-19 21:57:00,70.2,68.7,30.04,East,92,0.0,0.0,95,0.00,,,0.00,0.0,meteohub,2013-09-20 01:57:00,
2013-09-19 22:02:00,70.2,68.7,30.04,East,92,0.0,0.0,95,0.00,,,0.00,0.0,meteohub,2013-09-20 02:02:00,
2013-09-19 22:07:00,70.0,68.5,30.04,East,92,0.0,0.0,95,0.00,,,0.00,0.0,meteohub,2013-09-20 02:07:00,
2013-09-19 22:12:00,70.0,68.5,30.04,East,92,0.0,0.0,95,0.00,,,0.00,0.0,meteohub,2013-09-20 02:12:00,
2013-09-19 22:17:00,69.8,68.4,30.04,East,92,0.0,0.0,95,0.00,,,0.00,0.0,meteohub,2013-09-20 02:17:00,
2013-09-19 22:22:00,69.6,68.2,30.04,East,92,0.0,0.0,95,0.00,,,0.00,0.0,meteohub,2013-09-20 02:22:00,
2013-09-19 22:27:00,69.6,68.2,30.04,East,92,0.0,0.0,95,0.00,,,0.00,0.0,meteohub,2013-09-20 02:27:00,
2013-09-19 22:32:00,69.6,68.2,30.04,East,92,0.0,0.0,95,0.00,,,0.00,0.0,meteohub,2013-09-20 02:32:00,
2013-09-19 22:37:00,69.6,68.2,30.04,East,92,0.0,0.0,95,0.00,,,0.00,0.0,meteohub,2013-09-20 02:37:00,
2013-09-19 22:42:00,69.6,68.2,30.04,East,92,0.0,0.0,95,0.00,,,0.00,0.0,meteohub,2013-09-20 02:42:00,
2013-09-19 22:46:00,69.4,68.2,30.03,East,92,0.0,0.0,96,0.00,,,0.00,0.0,meteohub,2013-09-20 02:46:00,
2013-09-19 22:52:00,69.4,68.2,30.04,East,92,0.0,0.0,96,0.00,,,0.00,0.0,meteohub,2013-09-20 02:52:00,
2013-09-19 22:57:00,69.3,68.0,30.04,East,92,0.0,0.0,96,0.00,,,0.00,0.0,meteohub,2013-09-20 02:57:00,
2013-09-19 23:02:00,69.3,68.0,30.04,East,92,0.0,0.0,96,0.00,,,0.00,0.0,meteohub,2013-09-20 03:02:00,
2013-09-19 23:07:00,69.3,68.0,30.04,East,92,0.0,0.0,96,0.00,,,0.00,0.0,meteohub,2013-09-20 03:07:00,
2013-09-19 23:12:00,69.3,68.0,30.04,East,92,0.0,0.0,96,0.00,,,0.00,0.0,meteohub,2013-09-20 03:12:00,
2013-09-19 23:17:00,69.1,67.8,30.04,East,92,0.0,0.0,96,0.00,,,0.00,0.0,meteohub,2013-09-20 03:17:00,
2013-09-19 23:22:00,69.1,67.8,30.03,East,92,0.0,0.0,96,0.00,,,0.00,0.0,meteohub,2013-09-20 03:22:00,
2013-09-19 23:27:00,68.9,67.6,30.03,East,92,0.0,0.0,96,0.00,,,0.00,0.0,meteohub,2013-09-20 03:27:00,
2013-09-19 23:32:00,68.9,67.6,30.03,East,92,0.0,0.0,96,0.00,,,0.00,0.0,meteohub,2013-09-20 03:32:00,
2013-09-19 23:37:00,68.7,67.5,30.03,East,92,0.0,0.0,96,0.00,,,0.00,0.0,meteohub,2013-09-20 03:37:00,
2013-09-19 23:42:00,68.7,67.5,30.03,East,92,0.0,0.0,96,0.00,,,0.00,0.0,meteohub,2013-09-20 03:42:00,
2013-09-19 23:47:00,68.7,67.5,30.03,East,92,0.0,0.0,96,0.00,,,0.00,0.0,meteohub,2013-09-20 03:47:00,
2013-09-19 23:52:00,68.7,67.5,30.03,East,92,0.0,0.0,96,0.00,,,0.00,0.0,meteohub,2013-09-20 03:52:00,
2013-09-19 23:57:00,68.5,67.3,30.03,East,92,0.0,0.0,96,0.00,,,0.00,0.0,meteohub,2013-09-20 03:57:00,